Cortez, CO

2:56 AM MDT on April 23, 2017 (GMT -0600)
Cortez Municipal

Weather History for KCEZ - September, 2013

Change the Weather History Date:

Monday, September 30, 2013

  Actual Average Record
Temperature  
Mean Temperature 55 °F 55 °F  
Max Temperature 75 °F 72 °F 88 °F (2010)
Min Temperature 34 °F 37 °F 28 °F (2007)
Degree Days  
Heating Degree Days 10 10  
Month to date heating degree days 117 161  
Since 1 July heating degree days 117 172  
Cooling Degree Days 0 0  
Month to date cooling degree days 62 17  
Year to date cooling degree days 667 426  
Growing Degree Days 4 (Base 50)    
Moisture  
Dew Point 28 °F    
Average Humidity 48    
Maximum Humidity 82    
Minimum Humidity 13    
Precipitation  
Precipitation 0.00 in 0.05 in 0.17 in (2004)
Month to date precipitation 3.25 1.78  
Year to date precipitation 11.37 10.22  
Sea Level Pressure  
Sea Level Pressure 30.00 in    
Wind  
Wind Speed 5 mph (NE)    
Max Wind Speed 12 mph    
Max Gust Speed 16 mph    
Visibility 10 miles    
Events      
T = Trace of Precipitation, MM = Missing Value Source: NWS Daily Summary

Daily Weather History Graph

Daily Weather History Graph

Search for Another Location

Airport or City:

Trip Planner

Search our weather history database for the weather conditions in past years. The results will help you decide how hot, cold, wet, or windy it might be!

Date:

Astronomy

Sep. 30, 2013 Rise Set
Actual Time 7:09 AM MDT 6:58 PM MDT
Civil Twilight 6:43 AM MDT 7:24 PM MDT
Nautical Twilight 6:13 AM MDT 7:54 PM MDT
Astronomical Twilight 5:42 AM MDT 8:25 PM MDT
Moon 2:54 AM MDT (9/30) 4:27 PM MDT (9/30)
Length of Visible Light 12h 41m
Length of Day
11h 49m
Waning Crescent, 18% of the Moon is Illuminated
Sep 30
Waning Crescent
Oct 4
New
Oct 11
First Quarter
Oct 18
Full
Oct 26
Last Quarter

Hourly Weather History & Observations

Time (MDT) Temp. Windchill Dew Point Humidity Pressure Visibility Wind Dir Wind Speed Gust Speed Precip Events Conditions
12:53 AM 37.9 °F - 30.0 °F 73% 30.06 in 10.0 mi Calm Calm - N/A   Clear
1:53 AM 39.0 °F 34.8 °F 30.0 °F 70% 30.05 in 10.0 mi East 5.8 mph - N/A   Clear
2:53 AM 37.0 °F 34.5 °F 30.0 °F 76% 30.06 in 10.0 mi ENE 3.5 mph - N/A   Clear
3:53 AM 36.0 °F 31.1 °F 30.0 °F 79% 30.04 in 10.0 mi ENE 5.8 mph - N/A   Clear
4:53 AM 36.0 °F - 30.0 °F 79% 30.02 in 10.0 mi Calm Calm - N/A   Clear
5:53 AM 35.1 °F 32.2 °F 28.9 °F 78% 30.03 in 10.0 mi ENE 3.5 mph - N/A   Clear
6:53 AM 34.0 °F 29.8 °F 28.9 °F 82% 30.08 in 10.0 mi ENE 4.6 mph - N/A   Clear
7:53 AM 39.0 °F 36.8 °F 30.9 °F 73% 30.09 in 10.0 mi East 3.5 mph - N/A   Clear
8:53 AM 48.9 °F - 33.1 °F 54% 30.05 in 10.0 mi Calm Calm - N/A   Clear
9:53 AM 57.9 °F - 33.1 °F 39% 30.05 in 10.0 mi Calm Calm - N/A   Clear
10:53 AM 64.0 °F - 27.0 °F 25% 30.02 in 10.0 mi Calm Calm - N/A   Clear
11:53 AM 68.0 °F - 26.1 °F 21% 30.01 in 10.0 mi SW 4.6 mph - N/A   Clear
12:53 PM 70.0 °F - 23.0 °F 17% 30.00 in 10.0 mi Variable 3.5 mph - N/A   Clear
1:53 PM 72.0 °F - 21.0 °F 15% 29.96 in 10.0 mi WNW 8.1 mph - N/A   Clear
2:53 PM 73.0 °F - 19.9 °F 14% 29.94 in 10.0 mi Variable 5.8 mph - N/A   Clear
3:53 PM 73.9 °F - 21.9 °F 14% 29.93 in 10.0 mi Variable 6.9 mph - N/A   Clear
4:53 PM 73.9 °F - 21.0 °F 14% 29.92 in 10.0 mi WNW 10.4 mph - N/A   Clear
5:53 PM 72.0 °F - 19.9 °F 14% 29.92 in 10.0 mi NW 5.8 mph - N/A   Clear
6:53 PM 66.0 °F - 25.0 °F 21% 29.95 in 10.0 mi Calm Calm - N/A   Clear
7:53 PM 53.1 °F - 34.0 °F 48% 29.98 in 10.0 mi ENE 6.9 mph - N/A   Clear
8:53 PM 48.0 °F - 33.1 °F 56% 29.97 in 10.0 mi ENE 5.8 mph - N/A   Clear
9:53 PM 48.9 °F - 34.0 °F 56% 29.95 in 10.0 mi NE 9.2 mph - N/A   Clear
10:53 PM 45.0 °F 41.8 °F 33.1 °F 63% 29.95 in 10.0 mi NE 5.8 mph - N/A   Clear
11:53 PM 43.0 °F 39.5 °F 32.0 °F 65% 29.95 in 10.0 mi East 5.8 mph - N/A   Clear